User: anonymous   Login
Location: Heilwood
(40.6210°N, 78.9150°W)
Time: 16:39:56
(UTC-04:00)
Language:

BREEZE-M DEB (TANK) - Orbit

View from above orbital plane
View from above orbital plane
View from above satellite
View from above satellite

Ground track
Ground track

The orbit data is extracted from the following two-line orbital elements,

1 29649U 06056B   18143.79136051 +.00000420 +00000-0 +85680-4 0  9993
2 29649 049.5446 343.6899 5382766 014.7907 356.2825 05.00751952204822
Epoch (UTC): 23 May 2018 18:59:33
Eccentricity: 0.5382766
inclination: 49.5446°
perigee height: 285 km
apogee height: 15822 km
right ascension of ascending node: 343.6899°
argument of perigee: 14.7907°
revolutions per day: 5.00751952
mean anomaly at epoch: 356.2825°
orbit number at epoch: 20482

The dashed part of the orbit path shows where the satellite is in the earth's shadow,  

DLR